TimeMST,TemperatureF,Dew PointF,Humidity,Sea Level PressureIn,VisibilityMPH,Wind Direction,Wind SpeedMPH,Gust SpeedMPH,PrecipitationIn,Events,Conditions,WindDirDegrees,DateUTC
12:53 AM,24.1,18.0,77,30.22,10.0,Calm,Calm,-,N/A,,Clear,0,2011-11-30 07:53:00
1:53 AM,25.0,18.0,75,30.19,10.0,ENE,3.5,-,N/A,,Clear,70,2011-11-30 08:53:00
2:53 AM,24.1,18.0,77,30.16,10.0,Calm,Calm,-,N/A,,Clear,0,2011-11-30 09:53:00
3:53 AM,23.0,18.0,81,30.16,10.0,SSE,3.5,-,N/A,,Clear,150,2011-11-30 10:53:00
4:53 AM,21.9,18.0,85,30.18,10.0,East,4.6,-,N/A,,Clear,90,2011-11-30 11:53:00
5:53 AM,21.9,18.0,85,30.18,10.0,Calm,Calm,-,N/A,,Clear,0,2011-11-30 12:53:00
6:53 AM,19.9,16.0,85,30.19,10.0,ESE,8.1,-,N/A,,Clear,120,2011-11-30 13:53:00
7:53 AM,21.9,18.0,85,30.16,10.0,Calm,Calm,-,N/A,,Clear,0,2011-11-30 14:53:00
8:53 AM,28.0,19.0,69,30.12,10.0,Calm,Calm,-,N/A,,Clear,0,2011-11-30 15:53:00
9:53 AM,33.1,21.0,61,30.08,10.0,Calm,Calm,-,N/A,,Clear,0,2011-11-30 16:53:00
10:53 AM,39.0,19.9,46,30.02,10.0,Calm,Calm,-,N/A,,Clear,0,2011-11-30 17:53:00
11:53 AM,44.1,19.0,37,29.94,10.0,Variable,3.5,-,N/A,,Clear,0,2011-11-30 18:53:00
12:53 PM,46.9,18.0,32,29.89,10.0,Variable,5.8,-,N/A,,Clear,0,2011-11-30 19:53:00
1:53 PM,48.9,18.0,29,29.86,10.0,WNW,4.6,-,N/A,,Clear,300,2011-11-30 20:53:00
2:53 PM,54.0,18.0,24,29.82,10.0,Calm,Calm,-,N/A,,Clear,0,2011-11-30 21:53:00
3:53 PM,51.1,16.0,25,29.82,10.0,SW,9.2,-,N/A,,Clear,230,2011-11-30 22:53:00
5:53 PM,39.0,19.9,46,29.88,10.0,SSE,4.6,-,N/A,,Clear,160,2011-12-01 00:53:00
6:53 PM,36.0,19.9,52,29.91,10.0,SE,5.8,-,N/A,,Clear,130,2011-12-01 01:53:00
7:53 PM,34.0,19.9,56,29.91,10.0,East,5.8,-,N/A,,Clear,100,2011-12-01 02:53:00
8:53 PM,33.1,19.0,56,29.88,10.0,Variable,3.5,-,N/A,,Clear,0,2011-12-01 03:53:00
9:53 PM,28.9,19.0,67,29.89,10.0,SSW,3.5,-,N/A,,Clear,200,2011-12-01 04:53:00
10:53 PM,30.0,19.9,66,29.86,10.0,ESE,6.9,-,N/A,,Clear,110,2011-12-01 05:53:00